Location: Rochester
(43.1610°N, 77.6109°W)
Time: 10:57:32
(UTC-04:00)

ISS - Visible Passes

Search period start: 25 September 2022 00:00
Search period end: 05 October 2022 00:00
Orbit: 414 x 417 km, 51.6° (Epoch: 25 September)

Date Brightness Start Highest point End Pass type
(mag) Time Alt. Az. Time Alt. Az. Time Alt. Az.
25 Sep -1.9 20:46:53 10° NW 20:49:34 21° N 20:49:51 21° NNE visible
26 Sep -1.7 19:58:10 10° NW 20:00:42 19° N 20:03:00 11° NE visible
26 Sep -1.0 21:34:50 10° NW 21:35:53 18° NW 21:35:53 18° NW visible
27 Sep -2.4 20:46:15 10° NW 20:49:02 30° NNE 20:49:02 30° NNE visible
28 Sep -2.1 19:57:36 10° NW 20:00:26 24° NNE 20:02:13 16° ENE visible
28 Sep -0.9 21:34:07 10° WNW 21:35:06 18° WNW 21:35:06 18° WNW visible
29 Sep -3.2 20:45:26 10° NW 20:48:18 51° N 20:48:18 51° N visible
30 Sep -3.0 19:56:47 10° NW 19:59:58 38° NNE 20:01:32 23° ENE visible
30 Sep -0.7 21:33:35 10° WNW 21:34:25 16° W 21:34:25 16° W visible
01 Oct -3.2 20:44:41 10° WNW 20:47:42 55° WSW 20:47:42 55° WSW visible
02 Oct -3.8 19:55:54 10° NW 19:59:16 84° NNE 20:01:04 25° ESE visible
02 Oct -0.4 21:33:56 10° WSW 21:33:58 10° WSW 21:33:58 10° WSW visible
03 Oct -1.7 20:44:19 10° W 20:46:58 22° SW 20:47:25 21° SSW visible
04 Oct -2.4 19:55:11 10° WNW 19:58:19 37° SW 20:01:00 13° SSE visible
